#timestamp,LO_Frequency,Hit 
1500177615.0,286046993.3,N
1500177615.9,286046993.3,N
1500177635.8,286046998.0,N
1500177655.6,286046995.3,N
1500177675.4,286046997.2,N
1500177695.3,286046999.4,N
1500177715.1,286046998.3,N
1500177735.8,286046994.9,N
1500177755.7,286046994.1,N
1500177775.5,286046994.8,N
1500177795.3,286046992.1,N
1500177815.2,286046993.5,N
1500177835.9,286046995.1,N
1500177855.7,286046995.8,N
1500177875.6,286046998.6,N
1500177895.4,286047001.1,N
1500177915.2,286046999.5,N
1500177935.0,286046999.2,N
1500177936.0,286046999.2,N
1500177955.8,286047001.1,N
1500177975.6,286047001.0,N
1500177995.4,286047001.2,N
1500178015.3,286047000.5,N
1500178035.1,286047003.9,N
1500178055.8,286047001.3,N
1500178075.7,286046998.4,N
1500178095.5,286046997.1,N
1500178115.3,286046997.3,N
1500178135.2,286046995.0,N
1500178155.9,286046999.6,N
1500178175.7,286046998.3,N
1500178195.6,286046996.6,N
1500178215.4,286046997.8,N
1500178235.2,286046996.7,N
1500178255.1,286046997.7,N
1500178256.0,286046997.7,N
1500178275.8,286046997.2,N
1500178295.6,286047000.0,N
1500178315.5,286047000.9,N
1500178335.3,286046999.9,N
1500178355.1,286047002.9,N
1500178375.8,286046999.9,N
1500178395.7,286047000.4,N
1500178415.5,286046998.5,N
1500178435.3,286046996.5,N
1500178455.2,286046999.6,N
1500178475.9,286046999.3,N
1500178495.7,286046996.5,N
1500178515.6,286047000.5,N
1500178535.4,286047004.2,N
1500178555.2,286047002.1,N
1500178575.1,286047002.3,N
1500178576.0,286047002.3,N
1500178595.8,286046998.3,N
1500178615.6,286046998.1,N
1500178635.5,286046998.2,N
1500178655.3,286046997.5,N
1500178675.1,286046998.3,N
1500178695.9,286047005.8,N
1500178715.7,286047002.1,N
1500178735.5,286047003.2,N
1500178755.3,286046998.1,N
1500178775.2,286046999.4,N
1500178795.0,286046998.7,N
1500178795.9,286046998.7,N
1500178815.7,286046999.8,N
1500178835.6,286047001.7,N
1500178855.6,286047002.6,N
1500178875.4,286047000.2,N
1500178895.2,286046999.3,N
1500178915.1,286046997.1,N
1500178916.0,286046997.1,N
1500178935.8,286046996.9,N
1500178955.6,286046996.6,N
1500178975.5,286046997.1,N
1500178995.3,286046996.9,N
1500179015.1,286046997.2,N
1500179035.8,286046995.2,N
1500179055.7,286046995.0,N
1500179075.5,286047000.1,N
1500179095.3,286046998.8,N
1500179115.2,286046997.8,N
1500179135.9,286046997.8,N
1500179155.7,286046993.7,N
1500179175.6,286046997.6,N
1500179195.4,286046998.1,N
1500179215.2,286047001.9,N
1500179235.1,286047004.8,N
1500179236.0,286047004.8,N
1500179255.8,286047010.4,N
1500179275.6,286047010.1,N
1500179295.5,286047005.5,N
1500179315.3,286046999.9,N
1500179335.1,286047000.8,N
1500179355.9,286047001.2,N
1500179375.7,286046999.6,N
1500179395.5,286046999.6,N
1500179415.4,286046998.1,N
1500179435.2,286047000.7,N
1500179455.0,286047001.0,N
1500179455.9,286047001.0,N
1500179475.7,286047000.7,N
1500179495.6,286046998.1,N
1500179515.4,286046999.9,N
1500179535.2,286047000.1,N
1500179555.1,286046999.6,N
1500179556.0,286046999.6,N
1500179575.8,286046998.0,N
1500179595.6,286046995.8,N
1500179615.5,286046999.5,N
1500179635.3,286047003.9,N
1500179655.1,286047001.6,N
1500179675.9,286046996.6,N
1500179695.7,286046995.2,N
1500179715.5,286046996.4,N
1500179735.4,286046997.2,N
1500179755.2,286046997.3,N
1500179775.0,286047000.4,N
1500179775.9,286047000.4,N
1500179795.8,286047000.1,N
1500179815.6,286047001.0,N
1500179835.4,286046999.4,N
1500179855.3,286046999.2,N
1500179875.1,286046997.3,N
1500179876.0,286046997.3,N
1500179895.8,286046996.7,N
1500179915.7,286047001.1,N
1500179935.5,286047002.5,N
1500179955.3,286047001.5,N
1500179975.2,286047001.6,N
1500179995.9,286047004.3,N
1500180015.7,286047001.1,N
1500180035.6,286046999.1,N
1500180055.4,286046997.6,N
1500180075.2,286046997.2,N
1500180095.0,286047000.7,N
1500180096.0,286047000.7,N
1500180115.8,286047000.1,N
1500180135.6,286047001.0,N
1500180155.4,286046998.5,N
1500180175.3,286046999.0,N
1500180195.1,286047002.0,N
1500180215.8,286047003.6,N
1500180235.7,286047002.7,N
1500180255.5,286047001.0,N
1500180275.3,286047000.9,N
1500180295.2,286047000.6,N
1500180315.9,286047000.6,N
1500180335.7,286047001.1,N
1500180355.6,286047003.8,N
1500180375.4,286047004.4,N
1500180395.2,286047002.3,N
1500180415.1,286047000.9,N
1500180416.0,286047000.9,N
1500180435.8,286046997.3,N
1500180455.6,286046997.2,N
1500180475.4,286047001.1,N
1500180495.3,286047000.5,N
1500180515.1,286046997.1,N
1500180535.8,286046997.0,N
1500180555.7,286046994.9,N
1500180575.5,286046995.5,N
1500180595.3,286046995.1,N
1500180615.2,286046999.6,N
1500180635.9,286046998.8,N
1500180655.7,286046998.3,N
1500180675.6,286046999.6,N
1500180695.4,286047000.8,N
1500180715.2,286046996.7,N
1500180735.1,286047002.1,N
1500180736.0,286047002.1,N
1500180755.8,286047002.0,N
1500180775.6,286047000.9,N
1500180795.5,286047000.7,N
1500180815.3,286047001.1,N
1500180835.1,286046997.4,N
1500180855.9,286046997.7,N
1500180875.7,286046996.1,N
1500180895.5,286046999.2,N
1500180915.3,286047002.2,N
1500180935.2,286046998.2,N
1500180955.0,286046999.0,N
1500180955.9,286046999.0,N
1500180975.7,286046999.2,N
1500180995.6,286047004.3,N
1500181015.4,286047005.4,N
1500181035.2,286047001.4,N
1500181055.1,286046998.8,N
1500181056.0,286046998.8,N
1500181075.8,286046999.4,N
1500181095.6,286046997.2,N
1500181115.5,286046999.5,N
1500181135.3,286046997.4,N
1500181155.1,286046998.1,N
1500181175.9,286047001.0,N
1500181195.7,286046997.2,N
